Skip to main content Skip to accessibility
This website is not compatible with your web browser. You should install a newer browser. If you live in Jersey and need help upgrading call the States of Jersey web team on 440099.
Homegov.je

Information and public services for the Island of Jersey

L'înformâtion et les sèrvices publyis pouor I'Île dé Jèrri

  • Choose the service you want to log in to:

  • gov.je

    Update your notification preferences

  • one.gov.je

    Access government services

  • CAESAR

    Clear goods through customs or claim relief

  • Talentlink

    View or update your States of Jersey job application

CI Airfield TAFs

JERSEY - EGJJ

EGJJ 121105Z 1212/1221 28012KT 9999 FEW030 PROB30 TEMPO 1212/1220 8000 SHRA BKN015TCU BECMG 1219/1221 34005KT=

GUERNSEY - EGJB

EGJB 121105Z 1212/1221 28012KT 9999 FEW030 PROB30 TEMPO 1212/1221 28015G25KT 8000 SHRA BKN015TCU BECMG 1219/1221 34005KT=

ALDERNEY - EGJA

EGJA 121105Z 1212/1221 28014KT 9999 FEW025 PROB40 TEMPO 1212/1221 29016G26KT 6000 SHRA BKN015CB BECMG 1218/1220 34006KT=

​Apologies to the disruption to normal service. Commercial Aviation Services are available from the Jersey Met Forecaster 01534 448765.

Back to top
rating button